#timestamp,LO_Frequency,Hit,StdDev 
1620864015.8,286047000.2,N
1620864035.6,286047001.4,N
1620864055.5,286046999.8,N
1620864075.3,286047002.8,Y
1620864095.2,286047002.5,P
1620864115.9,286047004.2,P
1620864135.7,286047003.6,N
1620864155.6,286047001.9,N
1620864175.4,286047000.1,N
1620864195.2,286047000.3,N
1620864215.1,286047000.4,N
1620864216.0,286047000.4,N
1620864235.8,286047001.1,N
1620864255.7,286047000.9,N
1620864275.5,286046999.4,N
1620864295.4,286046996.9,N
1620864315.2,286046996.9,N
1620864335.0,286046997.0,N
1620864335.9,286046997.0,N
1620864355.8,286046994.9,N
1620864375.6,286046995.8,N
1620864395.5,286046996.1,N
1620864415.3,286046998.0,N
1620864435.1,286046996.0,N
1620864455.9,286046994.3,N
1620864475.7,286046992.0,N
1620864495.6,286046994.6,N
1620864515.4,286046995.1,N
1620864535.2,286046995.3,N
1620864555.1,286046995.4,N
1620864556.0,286046995.4,N
1620864575.8,286046993.5,N
1620864595.7,286046996.4,N
1620864615.5,286046991.9,N
1620864635.3,286046992.0,N
1620864655.2,286046990.1,Y
1620864675.0,286046996.1,P
1620864675.9,286046996.1,P
1620864695.8,286046993.7,P
1620864715.6,286046993.5,Y
1620864735.5,286046999.8,P
1620864755.3,286046998.5,N
1620864775.1,286046999.3,N
1620864795.9,286046996.9,N
1620864815.7,286046998.0,N
1620864835.6,286046996.9,N
1620864855.4,286046997.2,N
1620864875.2,286046996.8,N
1620864895.1,286046999.4,N
1620864896.0,286046999.4,N
1620864915.8,286046999.1,N
1620864935.7,286046999.4,N
1620864955.5,286046997.7,N
1620864975.3,286046997.7,N
1620864995.2,286046998.0,N
1620865015.0,286046996.7,N
1620865015.9,286046996.7,N
1620865035.8,286046997.2,N
1620865055.6,286046995.1,Y
1620865075.4,286046999.5,P
1620865095.3,286046999.1,N
1620865115.1,286047000.3,N
1620865135.9,286046999.3,N
1620865155.7,286046997.6,Y
1620865175.5,286046997.0,P
1620865195.4,286046997.4,N
1620865215.2,286046997.2,N
1620865235.1,286046997.4,N
1620865236.0,286046997.4,Y
1620865255.8,286046998.7,P
1620865275.6,286047001.6,N
1620865295.5,286047001.6,N
1620865315.3,286047003.1,N
1620865335.1,286047002.6,N
1620865355.9,286047001.9,N
1620865375.7,286047003.8,N
1620865395.6,286046999.8,N
1620865415.4,286047000.0,N
1620865435.2,286047003.2,N
1620865455.1,286047005.5,N
1620865456.0,286047005.5,N
1620865475.8,286047003.4,N
1620865495.6,286047004.7,N
1620865515.5,286047005.8,N
1620865535.3,286047003.8,N
1620865555.2,286047005.4,N
1620865575.9,286047003.5,N
1620865595.7,286047007.5,Y
1620865615.6,286047002.0,P
1620865635.4,286047000.1,N
1620865655.2,286047002.3,N
1620865675.1,286047004.4,Y
1620865676.0,286047004.4,P
1620865695.8,286047002.3,N
1620865715.7,286046998.5,N
1620865735.5,286046997.5,N
1620865755.3,286046997.8,N
1620865775.2,286046997.9,N
1620865795.0,286046997.5,N
1620865795.9,286046997.5,N
1620865815.8,286046995.0,N
1620865835.6,286046999.3,N
1620865855.4,286046999.8,N
1620865875.3,286047001.4,N
1620865895.1,286047000.8,N
1620865915.8,286047001.9,N
1620865935.7,286047002.2,N
1620865955.5,286047001.3,N
1620865975.4,286047003.5,N
1620865995.2,286047001.9,N
1620866015.0,286047002.1,N
1620866015.9,286047002.1,N
1620866035.8,286047004.1,N
1620866055.6,286047001.9,N
1620866075.4,286047000.3,N
1620866095.3,286047002.8,N
1620866115.1,286047002.9,N
1620866135.9,286047006.9,N
1620866155.7,286047008.0,Y
1620866175.5,286047007.1,P
1620866195.4,286047005.8,N
1620866215.2,286047004.9,N
1620866235.0,286047003.8,N
1620866235.9,286047003.8,N
1620866255.8,286047003.0,N
1620866275.6,286047005.9,Y
1620866295.5,286047000.4,P
1620866315.3,286046998.2,N
1620866335.1,286046998.9,N
1620866355.9,286046998.7,N
1620866375.7,286047000.6,N
1620866395.6,286047000.9,N
1620866415.4,286047000.9,N
1620866435.2,286047000.2,N
1620866455.1,286046998.9,N
1620866456.0,286046998.9,N
1620866475.8,286046998.8,N
1620866495.6,286046998.5,N
1620866515.5,286047000.7,N
1620866535.3,286047000.2,N
1620866555.2,286046998.7,N
1620866575.9,286046998.8,N
1620866595.7,286047000.7,N
1620866615.6,286047002.2,N
1620866635.4,286047002.3,N
1620866655.2,286047002.4,N
1620866675.1,286046998.9,N
1620866676.0,286046998.9,N
1620866695.8,286046998.3,N
1620866715.7,286047000.8,N
1620866735.5,286047000.9,N
1620866755.3,286047000.6,N
1620866775.2,286047000.5,N
1620866795.0,286046999.0,N
1620866795.9,286046999.0,N
1620866815.8,286046998.8,N
1620866835.6,286046995.5,Y
1620866855.4,286046997.7,P
1620866875.3,286046995.6,P
1620866895.1,286046997.8,N
1620866915.9,286046997.0,N
1620866935.7,286046998.7,N
1620866955.5,286047000.0,N
1620866975.4,286046999.9,N
1620866995.2,286047000.5,N
1620867015.0,286047000.7,N
1620867015.9,286047000.7,N
1620867035.8,286046998.3,N
1620867055.6,286046998.6,N
1620867075.4,286047000.6,N
1620867095.3,286047001.1,N
1620867115.1,286046999.5,N
1620867135.9,286046999.4,N
1620867155.7,286046999.4,N
1620867175.5,286046998.2,N
1620867195.4,286047002.8,N
1620867215.2,286047000.1,N
1620867235.1,286047000.5,N
1620867236.0,286047000.5,N
1620867255.8,286047000.9,N
1620867275.6,286047000.6,N
1620867295.5,286046999.9,N
1620867315.3,286046999.4,N
1620867335.2,286046998.1,N
1620867355.9,286046999.7,N
1620867375.7,286046998.2,N
1620867395.6,286046996.7,N
1620867415.4,286046997.4,N
1620867435.2,286046999.6,N
1620867455.1,286047000.0,N
1620867456.0,286047000.0,N
1620867475.8,286047002.4,N
1620867495.7,286047000.2,N
1620867515.5,286046998.2,N
1620867535.3,286047000.3,N
1620867555.2,286047000.9,N
1620867575.0,286046999.0,N
1620867575.9,286046999.0,N
1620867595.8,286046996.7,N
